This is the latest recevied weather packets stored in our database for station/object DH8TOM-2. If no packets are shown the sender has not sent any weather packets the latest 10 day(s).
| Time | Temp. | Humidity | Pressure | Rain* | Wind** | Luminosity | Snow |
|---|---|---|---|---|---|---|---|
| 1777890743 | 21.67° C | 48% | 1011.8 hPa | 0 mm | - | - | - |
| 1777890442 | 21.67° C | 48% | 1011.8 hPa | 0 mm | - | - | - |
| 1777890141 | 21.67° C | 46% | 1011.9 hPa | 0 mm | - | - | - |
| 1777889840 | 21.67° C | 46% | 1011.9 hPa | 0 mm | - | - | - |
| 1777889540 | 22.22° C | 45% | 1011.9 hPa | 0 mm | - | - | - |
| 1777889238 | 22.22° C | 45% | 1011.9 hPa | 0 mm | - | - | - |
| 1777888937 | 22.22° C | 49% | 1011.9 hPa | 0 mm | - | - | - |
| 1777888636 | 22.22° C | 49% | 1011.9 hPa | 0 mm | - | - | - |
| 1777888335 | 22.22° C | 50% | 1012 hPa | 0 mm | - | - | - |
| 1777888035 | 22.22° C | 50% | 1012 hPa | 0 mm | - | - | - |
| 1777887735 | 21.67° C | 52% | 1012.1 hPa | 0 mm | - | - | - |
| 1777887432 | 21.67° C | 52% | 1012.1 hPa | 0 mm | - | - | - |
| 1777887131 | 21.11° C | 54% | 1012.2 hPa | 0 mm | - | - | - |
| 1777886830 | 21.11° C | 54% | 1012.2 hPa | 0 mm | - | - | - |
| 1777886529 | 20.56° C | 56% | 1012.2 hPa | 0 mm | - | - | - |
| 1777886228 | 20.56° C | 56% | 1012.2 hPa | 0 mm | - | - | - |
| 1777885957 | 20° C | 56% | 1012.2 hPa | 0 mm | - | - | - |
| 1777885626 | 20° C | 56% | 1012.2 hPa | 0 mm | - | - | - |
| 1777885325 | 19.44° C | 58% | 1012.3 hPa | 0 mm | - | - | - |
| 1777885023 | 19.44° C | 58% | 1012.3 hPa | 0 mm | - | - | - |
| 1777884722 | 18.33° C | 60% | 1012.4 hPa | 0 mm | - | - | - |
| 1777884423 | 18.33° C | 60% | 1012.4 hPa | 0 mm | - | - | - |
| 1777884121 | 17.78° C | 63% | 1012.4 hPa | 0 mm | - | - | - |
| 1777883820 | 17.78° C | 63% | 1012.4 hPa | 0 mm | - | - | - |
| 1777883524 | 17.22° C | 65% | 1012.5 hPa | 0 mm | - | - | - |
* Rain latest hour (hover to see other rain measurements)
** Current wind speed in m/s (hover to see current wind gust speed)